Meath Environmental Platform

Observations for Trim Market St

Time AQI Temp °C Hum % Pres Pa CO μg/m³ H₂S μg/m³ NO μg/m³ NO₂ μg/m³ O₃ μg/m³ SO₂ μg/m³ PM1 μg/m³ PM2.5 μg/m³ PM10 μg/m³
Sunday 12 July 2026
20:28 2 25.1 51 55,706 0 0 0 5.26 29.44 0 1.43 3.94 4.58
20:27 2 25.1 51 55,699 0 0 0 5.58 32.71 0 0.71 3.43 6.05
20:26 2 25.1 51 55,682 0 0 0 5.38 31.15 0 1.43 3.94 5.31
20:25 2 25.2 51 55,676 0 0 0 5.97 33.39 0 2.14 3.95 4.57
20:23 2 25.2 51 55,677 0 0 0 5.59 30.1 0 0.71 2.93 4.56
20:22 2 25.2 51 55,701 0 0 0 5.3 32.23 0 1.43 2.94 3.08
20:15 2 25.4 50 56,180 0 0 0 5.88 31.42 0 1.43 2.95 3.07
20:14 2 25.4 50 56,202 0 0 0 5.09 29.28 0 0.71 3.98 5.3
20:08 2 25.6 50 56,600 0 0 0 5.16 29.77 0 4.28 6.56 8.27
20:07 2 25.6 50 56,700 0 0 0 6.07 30.19 0 2.85 7.08 9.02
20:06 2 25.6 50 56,642 0 0 0 7.27 26.88 0 1.43 3.48 3.8
20:05 2 25.6 50 56,744 0 0 0 5.18 30.01 0 2.14 4 6.78
20:04 2 25.7 50 56,834 0 0 0 5.16 30.36 0 0 2.97 3.05
20:03 2 25.7 50 57,025 0 0 0 5.07 33.5 0 1.43 3.49 3.79
20:02 2 25.7 50 57,071 0 0 0 4.48 29.39 0 2.14 4.53 6.03
20:01 2 25.7 50 57,088 0 0 0 5.98 30.61 0 2.14 4.01 5.29
20:00 2 25.7 50 57,159 0 0 0 5.39 30.67 0 1.43 4.02 4.54
19:55 2 25.8 50 57,494 0 0 0 4.68 30.47 0 1.43 4.02 6.78
19:47 2 25.9 49 58,240 0 0 0 5.1 29.05 0 2.14 4.55 6.03
19:46 2 25.9 49 58,361 0 0 0 5.01 32.3 0 1.43 3.53 3.77